FW7875 Weather Reports


time (UTC)temp
F
wind
direction
speed
knots
gust
knots
rain 1hr
in
rain 24hr
in
rain mn
in
humidity
%
barometer
mb
20260505022514 55 150 0.0 4.3 0.00 0.04 0.04 29 1011.0
20260505022016 55 203 1.7 5.2 0.00 0.04 0.04 28 1011.1
20260505021535 55 215 2.6 5.2 0.00 0.04 0.04 28 1011.1
20260505021016 55 215 3.5 5.2 0.00 0.04 0.04 28 1011.0
20260505020515 55 221 2.6 6.1 0.00 0.04 0.04 28 1010.8
20260505020036 56 217 2.6 6.1 0.00 0.04 0.04 28 1010.9
20260505015515 56 224 2.6 6.1 0.00 0.04 0.04 28 1010.8
20260505015016 56 250 2.6 6.1 0.00 0.04 0.04 28 1011.0
20260505014535 56 216 2.6 6.1 0.00 0.04 0.04 28 1010.9
20260505014013 56 224 2.6 9.6 0.00 0.04 0.04 28 1010.9
20260505013513 57 245 3.5 9.6 0.00 0.04 0.04 28 1010.8
20260505013032 57 224 4.3 7.8 0.00 0.04 0.04 28 1010.8
20260505012513 57 226 4.3 7.8 0.00 0.04 0.04 28 1011.0
20260505012014 57 245 5.2 11.3 0.00 0.04 0.04 28 1011.0
20260505011536 58 219 7.0 11.3 0.00 0.04 0.04 28 1010.9
20260505011014 58 231 6.1 11.3 0.00 0.04 0.04 28 1010.9
20260505010514 58 236 8.7 13.0 0.00 0.04 0.04 28 1011.0
20260505010055 58 212 9.6 13.0 0.00 0.04 0.04 28 1011.0
20260505005513 58 220 8.7 12.2 0.00 0.04 0.04 27 1011.0
20260505005014 59 211 5.2 13.0 0.00 0.04 0.04 28 1011.1
20260505004530 59 235 8.7 13.0 0.00 0.04 0.04 28 1011.1
20260505004013 59 248 8.7 13.0 0.00 0.04 0.04 28 1011.3
20260505003515 59 234 8.7 11.3 0.00 0.04 0.04 28 1011.2
20260505003041 59 240 7.0 16.5 0.00 0.04 0.04 28 1011.2
20260505002513 59 212 9.6 16.5 0.00 0.04 0.04 27 1011.3
20260505002012 59 212 9.6 20.0 0.00 0.04 0.04 26 1011.3
20260505001534 60 203 9.6 20.0 0.00 0.04 0.04 28 1011.2
20260505001013 60 246 10.4 14.8 0.00 0.04 0.04 27 1011.3
20260505000513 60 234 9.6 14.8 0.00 0.04 0.04 29 1011.3
20260505000042 60 237 8.7 13.0 0.00 0.04 0.04 27 1011.4
20260504235514 60 220 6.1 13.0 0.00 0.04 0.04 29 1011.4
20260504235014 60 207 8.7 13.9 0.00 0.04 0.04 30 1011.3
20260504234533 60 264 9.6 13.9 0.00 0.04 0.04 30 1011.3
20260504234014 60 232 11.3 14.8 0.00 0.04 0.04 30 1011.4
20260504233513 60 219 9.6 14.8 0.00 0.04 0.04 31 1011.3
20260504233032 60 243 9.6 17.4 0.00 0.04 0.04 31 1011.4
20260504232515 61 214 10.4 17.4 0.00 0.04 0.04 29 1011.5
20260504232017 61 207 9.6 17.4 0.00 0.04 0.04 27 1011.3
20260504231532 61 215 11.3 17.4 0.00 0.04 0.04 27 1011.3
20260504231015 62 221 9.6 18.2 0.00 0.04 0.04 28 1011.5
20260504230513 62 222 12.2 18.2 0.00 0.04 0.04 27 1011.5
20260504230041 61 245 11.3 16.5 0.00 0.04 0.04 28 1011.4
20260504225514 61 251 11.3 16.5 0.00 0.04 0.04 28 1011.4
20260504225015 61 233 12.2 16.5 0.00 0.04 0.04 27 1011.4
20260504224533 61 237 13.0 16.5 0.00 0.04 0.04 27 1011.3
20260504224013 61 257 9.6 16.5 0.00 0.04 0.04 28 1011.3
20260504223514 61 166 11.3 16.5 0.00 0.04 0.04 28 1011.5
20260504223032 61 224 9.6 19.1 0.00 0.04 0.04 28 1011.3
20260504222512 61 227 12.2 19.1 0.00 0.04 0.04 29 1011.4
20260504222018 61 226 11.3 19.1 0.00 0.04 0.04 27 1011.3
20260504221545 61 184 7.8 20.0 0.00 0.04 0.04 28 1011.3
20260504221017 62 191 10.4 20.0 0.00 0.04 0.04 31 1011.5
20260504220515 61 248 14.8 20.0 0.00 0.04 0.04 32 1011.6
20260504220035 62 206 11.3 18.2 0.00 0.04 0.04 32 1011.6
20260504215514 62 222 11.3 16.5 0.00 0.04 0.04 31 1011.6
20260504215014 61 194 10.4 18.2 0.00 0.04 0.04 34 1011.7
20260504214531 61 239 10.4 18.2 0.00 0.04 0.04 30 1011.8
20260504214013 62 231 10.4 18.2 0.00 0.04 0.04 33 1011.9
20260504213513 61 230 10.4 15.6 0.00 0.04 0.04 35 1011.9
20260504213042 61 227 12.2 15.6 0.00 0.04 0.04 35 1012.0
20260504212516 61 208 7.0 17.4 0.00 0.04 0.04 36 1012.1
20260504212014 61 226 11.3 17.4 0.00 0.04 0.04 36 1012.4
20260504211536 61 236 9.6 15.6 0.00 0.04 0.04 37 1012.3
20260504211014 61 245 10.4 16.5 0.00 0.04 0.04 39 1012.2
20260504210515 59 240 7.8 16.5 0.00 0.04 0.04 42 1012.4
20260504210038 58 257 5.2 10.4 0.00 0.04 0.04 46 1012.6
20260504205514 58 301 3.5 10.4 0.00 0.04 0.04 47 1012.5
20260504205013 58 226 3.5 10.4 0.00 0.04 0.04 49 1012.8
20260504204534 57 285 4.3 7.8 0.00 0.04 0.04 52 1012.9
20260504204015 56 314 4.3 7.8 0.00 0.04 0.04 51 1013.0
20260504203517 55 281 4.3 7.8 0.00 0.04 0.04 54 1013.1
20260504203043 55 294 3.5 8.7 0.00 0.04 0.04 56 1013.0
20260504202513 54 307 6.1 9.6 0.00 0.04 0.04 56 1013.1
20260504202014 54 295 6.1 11.3 0.00 0.04 0.04 57 1013.4
20260504201532 54 312 7.0 12.2 0.00 0.04 0.04 56 1013.2
20260504201013 54 307 7.8 13.0 0.00 0.04 0.04 56 1013.5
20260504200518 54 314 7.8 16.5 0.00 0.04 0.04 56 1013.5
20260504200032 54 303 9.6 17.4 0.00 0.04 0.04 56 1013.7
20260504195512 55 290 12.2 18.2 0.00 0.04 0.04 54 1013.6
20260504195014 56 276 14.8 20.0 0.00 0.04 0.04 52 1013.6
20260504194539 58 281 10.4 20.0 0.00 0.04 0.04 50 1013.5
20260504194014 61 246 13.0 19.1 0.00 0.04 0.04 38 1013.3
20260504193513 61 191 11.3 18.2 0.00 0.04 0.04 38 1013.1
20260504193032 61 209 11.3 19.1 0.00 0.04 0.04 40 1013.2
20260504192513 61 232 10.4 20.9 0.00 0.04 0.04 37 1013.2
20260504192016 61 191 13.9 20.9 0.00 0.04 0.04 36 1013.1
20260504191538 61 235 9.6 20.0 0.00 0.04 0.04 41 1012.9
20260504191013 61 251 12.2 20.0 0.00 0.04 0.04 42 1013.2
20260504190514 61 214 11.3 18.2 0.00 0.04 0.04 40 1013.1
20260504190030 61 222 12.2 18.2 0.00 0.04 0.04 45 1013.2
20260504185512 61 241 9.6 18.2 0.00 0.04 0.04 41 1013.1
20260504185014 61 232 11.3 18.2 0.00 0.04 0.04 42 1013.2
20260504184531 60 235 9.6 16.5 0.00 0.04 0.04 44 1013.2
20260504184013 60 211 9.6 21.7 0.00 0.04 0.04 43 1013.2
20260504183516 61 218 12.2 21.7 0.00 0.04 0.04 41 1013.3
20260504183031 61 238 7.8 14.8 0.00 0.04 0.04 45 1013.3
20260504182516 61 233 7.8 14.8 0.00 0.04 0.04 46 1013.4
20260504182017 61 235 7.0 14.8 0.00 0.04 0.04 48 1013.4
20260504181537 59 234 3.5 13.0 0.00 0.04 0.04 53 1013.6
20260504181013 59 153 6.1 11.3 0.00 0.04 0.04 51 1013.6
20260504180514 59 290 7.0 11.3 0.00 0.04 0.04 55 1013.7
20260504180035 59 258 5.2 11.3 0.00 0.04 0.04 58 1013.9
20260504175539 58 282 6.1 10.4 0.00 0.04 0.04 58 1013.9
20260504175013 57 259 5.2 11.3 0.00 0.04 0.04 59 1013.9
20260504174532 57 277 7.8 11.3 0.00 0.04 0.04 62 1013.9
20260504174013 57 291 5.2 11.3 0.00 0.04 0.04 64 1014.1
20260504173514 56 293 7.0 13.9 0.00 0.04 0.04 65 1014.1
20260504173034 56 289 7.0 15.6 0.00 0.04 0.04 64 1014.2
20260504172512 56 285 9.6 15.6 0.00 0.04 0.04 62 1014.3
20260504172016 56 285 9.6 13.9 0.00 0.04 0.04 64 1014.2
20260504171535 56 300 7.0 13.9 0.00 0.04 0.04 65 1014.3
20260504171015 55 285 9.6 13.9 0.00 0.04 0.04 62 1014.1
20260504170514 55 288 10.4 13.9 0.00 0.04 0.04 64 1014.2
20260504151014 53 326 0.0 2.6 0.00 0.04 0.04 66 1015.1
20260504150515 53 283 1.7 3.5 0.00 0.04 0.04 64 1015.2
20260504141018 46 107 2.6 3.5 0.00 0.04 0.04 86 1015.5
20260504140513 46 114 2.6 3.5 0.00 0.04 0.04 86 1015.3
20260504130512 42 84 4.3 7.0 0.00 0.04 0.04 87 1015.1
20260504110516 43 97 7.8 9.6 0.00 0.04 0.04 90 1015.4
20260504100511 44 63 2.6 8.7 0.03 0.04 0.04 90 1015.9
20260504081534 46 113 0.0 2.6 0.00 0.00 0.00 77 1016.1
20260504081020 46 107 0.9 7.8 0.00 0.00 0.00 78 1016.1
20260504080513 46 121 0.9 7.8 0.00 0.00 0.00 79 1016.1
20260504050517 55 197 10.4 18.2 0.00 0.00 0.00 47 1017.0
20260504045510 56 194 10.4 15.6 0.00 0.00 0.00 45 1016.8
20260504045016 56 184 9.6 13.9 0.00 0.00 0.00 43 1016.7
20260504044529 56 224 9.6 13.9 0.00 0.00 0.00 42 1016.7
20260504044011 56 189 7.8 15.6 0.00 0.00 0.00 41 1016.7
20260504043510 56 174 8.7 15.6 0.00 0.00 0.00 41 1016.5
20260504043035 57 216 9.6 21.7 0.00 0.00 0.00 40 1016.6
20260504042512 57 210 15.6 21.7 0.00 0.00 0.00 39 1016.4
20260504042013 57 245 12.2 18.2 0.00 0.00 0.00 38 1016.1
20260504041531 56 218 10.4 16.5 0.00 0.00 0.00 38 1015.8
20260504041012 53 207 7.8 11.3 0.00 0.00 0.00 41 1015.6
20260504040511 50 0 0.0 5.2 0.00 0.00 0.00 42 1015.6
20260504040056 49 206 3.5 5.2 0.00 0.00 0.00 44 1015.4
20260504035512 49 105 2.6 4.3 0.00 0.00 0.00 44 1014.8
20260504035016 49 97 2.6 5.2 0.00 0.00 0.00 45 1014.6
20260504034530 48 98 3.5 5.2 0.00 0.00 0.00 45 1014.5
20260504034011 48 86 2.6 4.3 0.00 0.00 0.00 45 1014.6
20260504033511 48 85 2.6 4.3 0.00 0.00 0.00 45 1014.5
20260504033035 49 96 2.6 4.3 0.00 0.00 0.00 45 1014.6
20260504032512 49 92 3.5 4.3 0.00 0.00 0.00 44 1014.6
20260504032013 49 90 3.5 4.3 0.00 0.00 0.00 45 1014.6
20260504031530 49 105 2.6 4.3 0.00 0.00 0.00 44 1014.6
20260504031012 49 94 1.7 3.5 0.00 0.00 0.00 45 1014.6
20260504030514 50 85 2.6 3.5 0.00 0.00 0.00 44 1014.6
20260504030032 51 93 2.6 3.5 0.00 0.00 0.00 42 1014.6
20260504025516 53 94 0.9 1.7 0.00 0.00 0.00 39 1014.5
20260504025010 54 91 0.0 1.7 0.00 0.00 0.00 36 1014.5
20260504024531 56 111 0.9 1.7 0.00 0.00 0.00 33 1014.4
20260504024013 56 0 0.0 1.7 0.00 0.00 0.00 33 1014.4
20260504023515 56 83 0.9 1.7 0.00 0.00 0.00 33 1014.4
20260504023034 56 0 0.0 0.9 0.00 0.00 0.00 33 1014.4